Information Letters
Instructions: More Information:

An information letter provides general statements of well-defined law without applying them to a specific set of facts. They are furnished by the IRS National Office in response to requests for general information by taxpayers, by congress-persons on behalf of constituents, or by congress-persons on their own behalf.

More about Information Letters

NOTE: Information letters are advisory only and have no binding effect on the IRS.

  1. Enter a term in the Find Box.
  2. Select a category (column heading) in the drop down.
  3. Click Find.
Find Help

1,101 - 1,200 of 2,961 files Show per page:  25 50 100 200 « Previous | 8 9 10 11 12 13 14 15 16 17 | Next » 
Number Not sorted Help on Number UILC Not sorted Help on UILC Subject Not sorted Help on Subject Released Sorted Descending Help on Released
2009-0114 9999.92-00 Issues Related to Statutes Other Than Contained in Internal Revenue Code 07/27/2012
2009-0111 165.10-00 Insolvent Financial Institutions 07/27/2012
2009-0108 62.00-00; 63.00-00 Adjusted Gross Income Defined; Taxable Income Defined 07/27/2012
2009-0105 36A.00-00; 9999.92-00 Making Work Pay Credit; Issues Related to Statutes Other Than Contained in Internal Revenue Code 07/27/2012
2009-0104 122.00-00 Certain Reduced Uniform Services Retirement Pay 07/27/2012
2009-0101 36.00-00 First-Time Homebuyer Credit 07/27/2012
2009-0098 36.00-00 First-Time Homebuyer Credit 07/27/2012
2009-0095 165.07-02 Presidentially Declared Disaster Areas 07/27/2012
2009-0092 165.00-00 Deductions For Losses 07/27/2012
2009-0089 1211.00-00 Limitation on Capital Losses 07/27/2012
2009-0085 61.00-00; 108.00-00; 108.01-02; 108.01-03; 6050P.00-00 Gross Income v. Not Gross Income; Income From Discharge of Indebtedness; Insolvent Taxpayer; Qualified Business Indebtedness; Returns Relating to Cancellation of Indebtedness by Certain Financial Enti 07/27/2012
2009-0082 165.00-00 Deductions For Losses 07/27/2012
2009-0079 165.00-00 Deductions For Losses 07/27/2012
2009-0076 1211.00-00 Limitation on Capital Losses 07/27/2012
2009-0073 83.01-00 When Includible in Gross Income 07/27/2012
2009-0070 3121.01-00 Wages 07/27/2012
2009-0069 165.00-00 Deductions For Losses 07/27/2012
2009-0066 1031.05-00 Deferred Exchanges 07/27/2012
2009-0063 1031.05-00 Deferred Exchanges 07/27/2012
2009-0061 170.02-00 Value of Contribution 07/27/2012
2009-0058 1362.00-00 Election by Small Business Corporation 07/27/2012
2009-0057 1362.01-02 Election After Termination 07/27/2012
2009-0054 168.36-00 R 1986 Lease Term 07/27/2012
2009-0051 9999.98-00 Not Able to Identify Under Present List 07/27/2012
2009-0048 451.23-00 Special Rules for Crop Insurance Proceeds 07/27/2012
2009-0045 1031.05-00 Deferred Exchanges 07/27/2012
2009-0042 1221.00-00 Capital Asset v. Not a Capital Asset 07/27/2012
2009-0038 170.00-00 Charitable, Etc. Contributions and Gifts 07/27/2012
2009-0035 36.00-00 First-Time Homebuyer Credit 07/27/2012
2009-0032 36.00-00 First-Time Homebuyer Credit 07/27/2012
2009-0029 112.00-00 Combat Pay (Excluded v. Not Excluded) 07/27/2012
2009-0026 170.09-00 Donees of Charitable Contributions in General 07/27/2012
2009-0023 165.00-00 Deductions For Losses 07/27/2012
2009-0022 9999.98-00 Not Able to Identify Under Present List 07/27/2012
2009-0019 55.00-00 Alternative Minimum Tax 07/27/2012
2009-0016 170.00-00 Charitable, Etc. Contributions and Gifts 07/27/2012
2009-0013 112.00-00 Combat Pay (Excluded v. Not Excluded) 07/27/2012
2009-0010 213.00-00 Medical, Dental, etc., Expenses 07/27/2012
2009-0009 9999.98-00 Not Able to Identify Under Present List 07/27/2012
2009-0006 112.00-00 Combat Pay (Excluded v. Not Excluded) 07/27/2012
2009-0003 9999.98-00 Not Able to Identify Under Present List 07/27/2012
2008-0043 9114.03-42 United Kingdom 07/27/2012
2008-0040 3121.00-00 Definitions 07/27/2012
2008-0037 61.00-00 Gross Income v. Not Gross Income 07/27/2012
2008-0033 9999.98-00 Not Able to Identify Under Present List 07/27/2012
2008-0030 1301.00-00 Averaging of Farm Income 07/27/2012
2008-0027 86.01-00 Computation 07/27/2012
2008-0024 9114.03-42 United Kingdom 07/27/2012
2008-0021 1031.00-00 Exchange of Property Held for Productive Use or Investment 07/27/2012
2008-0018 61.00-00 Gross Income v. Not Gross Income 07/27/2012
2008-0017 165.00-00 Deductions For Losses 07/27/2012
2008-0014 139B.00-00 Benefits Provided to Volunteer Firefighters and Emergency Medical Responders 07/27/2012
2008-0011 1402.00-00 Definitions 07/27/2012
2008-0008 162.00-00 Trade or Business (Deductible v. Not Deductible) 07/27/2012
2008-0005 62.02-05 Tool / Equipment Rental 07/27/2012
2008-0004 170.00-00 Charitable, Etc. Contributions and Gifts 07/27/2012
2008-0002 3121.02-05 If Employed in States Where There are Political Subdivisions or Instrumentalities 07/27/2012
2008-0001 3121.01-14 Non-Plan Payments for Sickness, Accident, etc. 07/27/2012
2007-0044 9999.98-00 Not Able to Identify Under Present List 07/27/2012
2007-0041 3121.01-00 Wages 07/27/2012
2007-0038 83.00-00 Property Transferred in Connection With Performance of Services 07/27/2012
2007-0035 170.01-00 Time of Making Contribution 07/27/2012
2007-0034 408.00-00 Individual Retirement Accounts 07/27/2012
2007-0031 179D.00-00 179D.00-00 Energy Efficient Commercial Building Property Deduction 07/27/2012
2007-0028 9999.98-00 Not Able to Identify Under Present List 07/27/2012
2007-0025 132.00-00 Certain Fringe Benefits 07/27/2012
2007-0021 3121.02-07 Mandatory Coverage of State, etc., Employees 07/27/2012
2007-0018 48A.00-00 Qualifying Advanced Coal Project Credit 07/27/2012
2007-0016 7508A.00-00 Authority to Postpone Certain Tax-Related Deadlines by Reason of Presidentially Declared Disasters 07/27/2012
2007-0013 9999.98-00 Not Able to Identify Under Present List 07/27/2012
2007-0011 1402.00-00 Definitions 07/27/2012
2007-0008 179.02-00 Election 07/27/2012
2007-0005 48A.00-00 Qualifying Advanced Coal Project Credit 07/27/2012
2007-0003 48A.00-00 Qualifying Advanced Coal Project Credit 07/27/2012
2006-0098 170.00-00 Charitable, Etc. Contributions and Gifts 07/27/2012
2006-0095 3121.10-01 In General 07/27/2012
2006-0093 3121.02-06 Voluntary Coverage of State, etc., Employees 07/27/2012
2006-0090 48A.00-00 Qualifying Advanced Coal Project Credit 07/27/2012
2006-0087 104.04-00 Armed Services, etc. 07/27/2012
2006-0082 48B.00-00 Qualifying Gasification Project Credit 07/27/2012
2006-0079 9999.98-00 Not Able to Identify Under Present List 07/27/2012
2006-0076 1362.01-03 Late Elections 07/27/2012
2006-0074 9999.98-00 Not Able to Identify Under Present List 07/27/2012
2006-0071 9999.98-00 Not Able to Identify Under Present List 07/27/2012
2006-0068 48A.00-00 Qualifying Advanced Coal Project Credit 07/27/2012
2006-0066 48A.00-00 48A.00-00 Qualifying Advanced Coal Project Credit 07/27/2012
2006-0063 1362.02-01 Revocation 07/27/2012
2006-0061 1362.01-03 Late Elections 07/27/2012
2006-0058 6041.01-00 Persons Engaged in Trade or Business; Mutual or Cooperative Electric Companies 07/27/2012
2006-0055 3401.01-00 Wages Subject to Withholding 07/27/2012
2006-0053 1362.01-03 Late Elections 07/27/2012
2006-0050 1362.01-03 Late Elections 07/27/2012
2006-0047 38.00-00 General Business Credit 07/27/2012
2006-0042 9999.98-00 Not Able to Identify Under Present List 07/27/2012
2006-0039 50.02-03 Property Used by Tax-Exempt Organizations 07/27/2012
2006-0036 9999.98-00 Not Able to Identify Under Present List 07/27/2012
2006-0034 9999.98-00 Not Able to Identify Under Present List 07/27/2012
2006-0031 7701.00-00 Definitions 07/27/2012
2006-0028 1033.00-00 Involuntary Conversion 07/27/2012
2006-0026 121.00-00 Exclusion of Gain from Sale of Principal Residence (Amended by P.L. 105-34, Section 312(a)) 07/27/2012

Official Adobe Website
Get Adobe ® Reader